SQ4LOL-9 Weather Reports


time (UTC)temp
F
wind
direction
speed
knots
gust
knots
rain 1hr
in
rain 24hr
in
rain mn
in
humidity
%
barometer
mb
20260507194359 60 0.0 0.0 0.00 0.00 0.00 47 994.7
20260507194353 59 0.0 0.0 0.00 0.00 0.00 47 994.8
20260507143506 87 0.0 0.0 0.00 0.00 0.00 30 991.8
20260507143434 86 0.0 0.0 0.00 0.00 0.00 30 991.7
20260507143428 86 0.0 0.0 0.00 0.00 0.00 30 991.8
20260507143420 86 0.0 0.0 0.00 0.00 0.00 30 991.6
20260507143413 86 0.0 0.0 0.00 0.00 0.00 30 991.3
20260507143025 87 0.0 0.0 0.00 0.00 0.00 29 991.8
20260507143009 87 0.0 0.0 0.00 0.00 0.00 29 991.9
20260507143003 87 0.0 0.0 0.00 0.00 0.00 29 991.9
20260507142950 87 0.0 0.0 0.00 0.00 0.00 29 991.8
20260507142431 87 0.0 0.0 0.00 0.00 0.00 29 991.9
20260507142418 87 0.0 0.0 0.00 0.00 0.00 29 991.7
20260507142405 87 0.0 0.0 0.00 0.00 0.00 29 991.8
20260507142339 87 0.0 0.0 0.00 0.00 0.00 29 991.8
20260507142332 87 0.0 0.0 0.00 0.00 0.00 30 991.9
20260507142326 87 0.0 0.0 0.00 0.00 0.00 30 992.0
20260507142319 87 0.0 0.0 0.00 0.00 0.00 29 991.9
20260507142307 87 0.0 0.0 0.00 0.00 0.00 29 991.7
20260507142300 86 0.0 0.0 0.00 0.00 0.00 30 991.6
20260507141852 88 0.0 0.0 0.00 0.00 0.00 27 991.9
20260507141846 88 0.0 0.0 0.00 0.00 0.00 27 991.8
20260507141839 88 0.0 0.0 0.00 0.00 0.00 28 991.6
20260507141819 88 0.0 0.0 0.00 0.00 0.00 27 991.4
20260507141812 88 0.0 0.0 0.00 0.00 0.00 27 991.6
20260507141806 88 0.0 0.0 0.00 0.00 0.00 28 991.7
20260507141753 88 0.0 0.0 0.00 0.00 0.00 28 991.7
20260507141746 87 0.0 0.0 0.00 0.00 0.00 28 991.7
20260507141740 87 0.0 0.0 0.00 0.00 0.00 28 991.8
20260507141720 87 0.0 0.0 0.00 0.00 0.00 29 992.0
20260507141714 87 0.0 0.0 0.00 0.00 0.00 28 992.0
20260507141707 87 0.0 0.0 0.00 0.00 0.00 28 991.9
20260507141701 86 0.0 0.0 0.00 0.00 0.00 29 991.5
20260507141648 87 0.0 0.0 0.00 0.00 0.00 29 991.8
20260507141641 87 0.0 0.0 0.00 0.00 0.00 29 991.9
20260507141628 86 0.0 0.0 0.00 0.00 0.00 29 991.8
20260507141615 86 0.0 0.0 0.00 0.00 0.00 29 991.7
20260507141609 86 0.0 0.0 0.00 0.00 0.00 29 991.6
20260507141556 86 0.0 0.0 0.00 0.00 0.00 29 991.7
20260507141549 86 0.0 0.0 0.00 0.00 0.00 29 991.6
20260507131311 90 0.0 0.0 0.00 0.00 0.00 43 994.1
20260507131212 90 0.0 0.0 0.00 0.00 0.00 43 994.1
20260507131206 90 0.0 0.0 0.00 0.00 0.00 43 994.2
20260507131159 89 0.0 0.0 0.00 0.00 0.00 44 994.2
20260507131153 89 0.0 0.0 0.00 0.00 0.00 44 994.3
20260507131124 89 0.0 0.0 0.00 0.00 0.00 44 994.4
20260507131107 89 0.0 0.0 0.00 0.00 0.00 45 994.3
20260507131100 89 0.0 0.0 0.00 0.00 0.00 45 994.4
20260507131047 88 0.0 0.0 0.00 0.00 0.00 45 994.3
20260507131026 88 0.0 0.0 0.00 0.00 0.00 45 994.4
20260507131007 88 0.0 0.0 0.00 0.00 0.00 46 994.4
20260507130948 87 0.0 0.0 0.00 0.00 0.00 46 994.4
20260507130941 87 0.0 0.0 0.00 0.00 0.00 46 994.2
20260507130928 87 0.0 0.0 0.00 0.00 0.00 46 994.1
20260507130915 87 0.0 0.0 0.00 0.00 0.00 47 994.1
20260507130903 86 0.0 0.0 0.00 0.00 0.00 47 994.1
20260507130810 85 0.0 0.0 0.00 0.00 0.00 48 994.0